Time,TemperatureF,DewpointF,PressureIn,WindDirection,WindDirectionDegrees,WindSpeedMPH,WindSpeedGustMPH,Humidity,HourlyPrecipIn,Conditions,Clouds,dailyrainin,SoftwareType,DateUTC
2013-06-16 00:01:00,53.1,49.6,29.92,WNW,299,0.0,0.0,88,0.00,,,0.00,Wunderground v.1.15,2013-06-16 04:01:00,
2013-06-16 00:02:00,53.1,49.6,29.92,WNW,299,0.0,0.0,88,0.00,,,0.00,Wunderground v.1.15,2013-06-16 04:02:00,
2013-06-16 00:03:00,53.0,49.5,29.92,WNW,299,0.0,0.0,88,0.00,,,0.00,Wunderground v.1.15,2013-06-16 04:03:00,
2013-06-16 00:07:00,52.9,49.4,29.92,WNW,299,0.0,0.0,88,0.00,,,0.00,Wunderground v.1.15,2013-06-16 04:07:00,
2013-06-16 00:08:00,52.9,49.4,29.92,WNW,299,0.0,0.0,88,0.00,,,0.00,Wunderground v.1.15,2013-06-16 04:08:00,
2013-06-16 00:14:00,52.7,49.2,29.92,WNW,299,0.0,0.0,88,0.00,,,0.00,Wunderground v.1.15,2013-06-16 04:14:00,
2013-06-16 00:21:00,52.6,49.1,29.92,WNW,299,0.0,0.0,88,0.00,,,0.00,Wunderground v.1.15,2013-06-16 04:21:00,
2013-06-16 00:26:00,52.5,49.0,29.92,WNW,299,0.0,0.0,88,0.00,,,0.00,Wunderground v.1.15,2013-06-16 04:26:00,
2013-06-16 00:31:00,52.4,48.9,29.92,WNW,299,0.0,0.0,88,0.00,,,0.00,Wunderground v.1.15,2013-06-16 04:31:00,
2013-06-16 00:37:00,52.3,48.9,29.92,WNW,299,0.0,0.0,88,0.00,,,0.00,Wunderground v.1.15,2013-06-16 04:37:00,
2013-06-16 00:43:00,52.3,48.9,29.92,WNW,299,0.0,0.0,88,0.00,,,0.00,Wunderground v.1.15,2013-06-16 04:43:00,
2013-06-16 00:49:00,52.2,48.8,29.92,WNW,299,0.0,0.0,88,0.00,,,0.00,Wunderground v.1.15,2013-06-16 04:49:00,
2013-06-16 00:56:00,52.2,48.8,29.92,WNW,299,0.0,0.0,88,0.00,,,0.00,Wunderground v.1.15,2013-06-16 04:56:00,
2013-06-16 01:02:00,52.0,48.6,29.92,WNW,299,0.0,0.0,88,0.00,,,0.00,Wunderground v.1.15,2013-06-16 05:02:00,
2013-06-16 01:07:00,51.9,48.5,29.92,WNW,299,0.0,0.0,88,0.00,,,0.00,Wunderground v.1.15,2013-06-16 05:07:00,
2013-06-16 01:13:00,51.9,48.5,29.92,WNW,299,0.0,0.0,88,0.00,,,0.00,Wunderground v.1.15,2013-06-16 05:13:00,
2013-06-16 01:18:00,51.9,48.5,29.92,WNW,299,0.0,0.0,88,0.00,,,0.00,Wunderground v.1.15,2013-06-16 05:18:00,
2013-06-16 01:24:00,51.7,48.3,29.91,WNW,299,0.0,0.0,88,0.00,,,0.00,Wunderground v.1.15,2013-06-16 05:24:00,
2013-06-16 01:29:00,51.5,48.1,29.92,WNW,299,0.0,0.0,88,0.00,,,0.00,Wunderground v.1.15,2013-06-16 05:29:00,
2013-06-16 01:36:00,51.3,47.9,29.91,WNW,299,0.0,0.0,88,0.00,,,0.00,Wunderground v.1.15,2013-06-16 05:36:00,
2013-06-16 01:42:00,51.2,47.8,29.91,WNW,299,0.0,0.0,88,0.00,,,0.00,Wunderground v.1.15,2013-06-16 05:42:00,
2013-06-16 01:48:00,51.1,47.7,29.92,WNW,299,0.0,0.0,88,0.00,,,0.00,Wunderground v.1.15,2013-06-16 05:48:00,
2013-06-16 01:54:00,51.1,47.7,29.92,WNW,299,0.0,0.0,88,0.00,,,0.00,Wunderground v.1.15,2013-06-16 05:54:00,
2013-06-16 02:01:00,51.0,47.6,29.92,WNW,299,0.0,0.0,88,0.00,,,0.00,Wunderground v.1.15,2013-06-16 06:01:00,
2013-06-16 02:06:00,51.0,47.6,29.92,WNW,299,0.0,0.0,88,0.00,,,0.00,Wunderground v.1.15,2013-06-16 06:06:00,
2013-06-16 02:12:00,51.0,47.6,29.92,WNW,299,0.0,0.0,88,0.00,,,0.00,Wunderground v.1.15,2013-06-16 06:12:00,
2013-06-16 02:18:00,50.9,47.5,29.92,WNW,299,0.0,0.0,88,0.00,,,0.00,Wunderground v.1.15,2013-06-16 06:18:00,
2013-06-16 02:23:00,50.9,47.5,29.92,WNW,299,0.0,0.0,88,0.00,,,0.00,Wunderground v.1.15,2013-06-16 06:23:00,
2013-06-16 02:29:00,50.8,47.4,29.92,WNW,299,0.0,0.0,88,0.00,,,0.00,Wunderground v.1.15,2013-06-16 06:29:00,
2013-06-16 02:36:00,50.8,47.4,29.92,WNW,299,0.0,0.0,88,0.00,,,0.00,Wunderground v.1.15,2013-06-16 06:36:00,
2013-06-16 02:42:00,50.9,47.5,29.92,WNW,299,0.0,0.0,88,0.00,,,0.00,Wunderground v.1.15,2013-06-16 06:42:00,
2013-06-16 02:48:00,50.9,47.5,29.92,WNW,299,0.0,0.0,88,0.00,,,0.00,Wunderground v.1.15,2013-06-16 06:48:00,
2013-06-16 02:54:00,50.8,47.4,29.92,WNW,303,0.0,0.0,88,0.00,,,0.00,Wunderground v.1.15,2013-06-16 06:54:00,
2013-06-16 03:01:00,50.6,47.2,29.92,WNW,303,0.0,0.0,88,0.00,,,0.00,Wunderground v.1.15,2013-06-16 07:01:00,
2013-06-16 03:06:00,50.5,47.1,29.92,WNW,303,0.0,0.0,88,0.00,,,0.00,Wunderground v.1.15,2013-06-16 07:06:00,
2013-06-16 03:12:00,50.5,47.1,29.92,WNW,303,0.0,0.0,88,0.00,,,0.00,Wunderground v.1.15,2013-06-16 07:12:00,
2013-06-16 03:18:00,50.4,47.0,29.91,WNW,303,0.0,0.0,88,0.00,,,0.00,Wunderground v.1.15,2013-06-16 07:18:00,
2013-06-16 03:23:00,50.4,47.0,29.92,WNW,303,0.0,0.0,88,0.00,,,0.00,Wunderground v.1.15,2013-06-16 07:23:00,
2013-06-16 03:29:00,50.3,46.9,29.91,West,261,0.0,0.0,88,0.00,,,0.00,Wunderground v.1.15,2013-06-16 07:29:00,
2013-06-16 03:36:00,50.3,46.9,29.91,NE,49,0.0,0.0,88,0.00,,,0.00,Wunderground v.1.15,2013-06-16 07:36:00,
2013-06-16 03:42:00,50.3,46.9,29.91,NE,49,0.0,0.0,88,0.00,,,0.00,Wunderground v.1.15,2013-06-16 07:42:00,
2013-06-16 03:48:00,50.3,46.9,29.91,NE,49,0.0,0.0,88,0.00,,,0.00,Wunderground v.1.15,2013-06-16 07:48:00,
2013-06-16 03:53:00,50.3,46.9,29.91,NE,51,0.0,0.0,88,0.00,,,0.00,Wunderground v.1.15,2013-06-16 07:53:00,
2013-06-16 03:59:00,50.2,46.8,29.90,NE,51,0.0,0.0,88,0.00,,,0.00,Wunderground v.1.15,2013-06-16 07:59:00,
2013-06-16 04:06:00,50.2,46.8,29.90,NE,51,0.0,0.0,88,0.00,,,0.00,Wunderground v.1.15,2013-06-16 08:06:00,
2013-06-16 04:12:00,50.2,46.8,29.90,NE,51,0.0,0.0,88,0.00,,,0.00,Wunderground v.1.15,2013-06-16 08:12:00,
2013-06-16 04:18:00,50.1,46.7,29.90,NE,51,0.0,0.0,88,0.00,,,0.00,Wunderground v.1.15,2013-06-16 08:18:00,
2013-06-16 04:24:00,50.0,46.6,29.90,NE,51,0.0,0.0,88,0.00,,,0.00,Wunderground v.1.15,2013-06-16 08:24:00,
2013-06-16 04:29:00,49.8,46.4,29.91,NE,51,0.0,0.0,88,0.00,,,0.00,Wunderground v.1.15,2013-06-16 08:29:00,
2013-06-16 04:36:00,49.7,46.3,29.91,NE,51,0.0,0.0,88,0.00,,,0.00,Wunderground v.1.15,2013-06-16 08:36:00,
2013-06-16 04:42:00,49.8,46.4,29.91,NE,51,0.0,0.0,88,0.00,,,0.00,Wunderground v.1.15,2013-06-16 08:42:00,
2013-06-16 04:48:00,49.8,46.4,29.91,NE,51,0.0,0.0,88,0.00,,,0.00,Wunderground v.1.15,2013-06-16 08:48:00,
2013-06-16 04:54:00,49.7,46.3,29.91,NNE,32,0.0,0.0,88,0.00,,,0.00,Wunderground v.1.15,2013-06-16 08:54:00,
2013-06-16 05:01:00,49.5,46.1,29.91,NNE,32,0.0,0.0,88,0.00,,,0.00,Wunderground v.1.15,2013-06-16 09:01:00,
2013-06-16 05:06:00,49.4,46.0,29.91,NNE,32,0.0,0.0,88,0.00,,,0.00,Wunderground v.1.15,2013-06-16 09:06:00,
2013-06-16 05:12:00,49.4,46.0,29.91,NNE,32,0.0,0.0,88,0.00,,,0.00,Wunderground v.1.15,2013-06-16 09:12:00,
2013-06-16 05:18:00,49.4,46.0,29.91,NNE,32,0.0,0.0,88,0.00,,,0.00,Wunderground v.1.15,2013-06-16 09:18:00,
2013-06-16 05:23:00,49.5,46.1,29.91,NNE,32,0.0,0.0,88,0.00,,,0.00,Wunderground v.1.15,2013-06-16 09:23:00,
2013-06-16 05:29:00,49.6,46.2,29.91,NNE,32,0.0,0.0,88,0.00,,,0.00,Wunderground v.1.15,2013-06-16 09:29:00,
2013-06-16 05:36:00,49.8,46.7,29.91,NNE,32,0.0,0.0,89,0.00,,,0.00,Wunderground v.1.15,2013-06-16 09:36:00,
2013-06-16 05:41:00,50.1,46.7,29.92,NNE,32,0.0,0.0,88,0.00,,,0.00,Wunderground v.1.15,2013-06-16 09:41:00,
2013-06-16 05:47:00,50.5,47.4,29.92,NNW,344,0.0,0.0,89,0.00,,,0.00,Wunderground v.1.15,2013-06-16 09:47:00,
2013-06-16 05:52:00,51.1,47.7,29.91,NNW,344,0.0,0.0,88,0.00,,,0.00,Wunderground v.1.15,2013-06-16 09:52:00,
2013-06-16 05:57:00,51.7,48.3,29.91,NNW,344,0.0,0.0,88,0.00,,,0.00,Wunderground v.1.15,2013-06-16 09:57:00,
2013-06-16 06:03:00,52.2,48.4,29.92,NNW,344,0.0,0.0,87,0.00,,,0.00,Wunderground v.1.15,2013-06-16 10:03:00,
2013-06-16 06:08:00,52.4,48.6,29.92,NNW,344,0.0,0.0,87,0.00,,,0.00,Wunderground v.1.15,2013-06-16 10:08:00,
2013-06-16 06:14:00,52.4,48.6,29.92,NNW,340,0.0,0.0,87,0.00,,,0.00,Wunderground v.1.15,2013-06-16 10:14:00,
2013-06-16 06:21:00,52.2,48.4,29.92,NNW,340,0.0,0.0,87,0.00,,,0.00,Wunderground v.1.15,2013-06-16 10:21:00,
2013-06-16 06:27:00,52.0,48.3,29.92,NNW,340,0.0,0.0,87,0.00,,,0.00,Wunderground v.1.15,2013-06-16 10:27:00,
2013-06-16 06:33:00,52.0,48.3,29.92,NNW,340,0.0,0.0,87,0.00,,,0.00,Wunderground v.1.15,2013-06-16 10:33:00,
2013-06-16 06:38:00,52.2,48.4,29.92,NNW,340,0.0,0.0,87,0.00,,,0.00,Wunderground v.1.15,2013-06-16 10:38:00,
2013-06-16 06:44:00,52.8,49.0,29.91,NNW,340,0.0,0.0,87,0.00,,,0.00,Wunderground v.1.15,2013-06-16 10:44:00,
2013-06-16 06:49:00,53.3,49.5,29.92,NNW,340,0.0,0.0,87,0.00,,,0.00,Wunderground v.1.15,2013-06-16 10:49:00,
2013-06-16 06:56:00,54.2,49.8,29.92,West,280,0.0,0.0,85,0.00,,,0.00,Wunderground v.1.15,2013-06-16 10:56:00,
2013-06-16 07:02:00,55.5,50.1,29.92,WNW,283,0.0,0.0,82,0.00,,,0.00,Wunderground v.1.15,2013-06-16 11:02:00,
2013-06-16 07:07:00,56.4,50.0,29.92,WNW,292,0.0,0.0,79,0.00,,,0.00,Wunderground v.1.15,2013-06-16 11:07:00,
2013-06-16 07:13:00,57.3,50.1,29.92,NNW,329,0.0,0.0,77,0.00,,,0.00,Wunderground v.1.15,2013-06-16 11:13:00,
2013-06-16 07:19:00,57.9,51.1,29.92,North,360,0.0,0.0,78,0.00,,,0.00,Wunderground v.1.15,2013-06-16 11:19:00,
2013-06-16 07:24:00,58.4,50.9,29.92,WNW,300,0.0,0.0,76,0.00,,,0.00,Wunderground v.1.15,2013-06-16 11:24:00,
2013-06-16 07:29:00,58.9,51.0,29.93,NW,315,0.0,0.0,75,0.00,,,0.00,Wunderground v.1.15,2013-06-16 11:29:00,
2013-06-16 07:36:00,59.0,51.4,29.92,NW,307,0.0,0.0,76,0.00,,,0.00,Wunderground v.1.15,2013-06-16 11:36:00,
2013-06-16 07:41:00,59.1,51.2,29.92,WNW,295,0.0,0.0,75,0.00,,,0.00,Wunderground v.1.15,2013-06-16 11:41:00,
2013-06-16 07:47:00,59.4,51.5,29.92,WSW,257,0.0,0.0,75,0.00,,,0.00,Wunderground v.1.15,2013-06-16 11:47:00,
2013-06-16 07:52:00,59.6,52.4,29.93,NW,307,0.0,0.0,77,0.00,,,0.00,Wunderground v.1.15,2013-06-16 11:52:00,
2013-06-16 07:58:00,59.7,52.8,29.93,NW,309,0.0,0.0,78,0.00,,,0.00,Wunderground v.1.15,2013-06-16 11:58:00,
2013-06-16 08:03:00,60.0,52.1,29.93,WSW,253,0.0,0.0,75,0.00,,,0.00,Wunderground v.1.15,2013-06-16 12:03:00,
2013-06-16 08:09:00,60.5,52.2,29.92,NW,313,0.0,0.0,74,0.00,,,0.00,Wunderground v.1.15,2013-06-16 12:09:00,
2013-06-16 08:16:00,61.2,52.8,29.92,WNW,298,0.0,0.0,74,0.00,,,0.00,Wunderground v.1.15,2013-06-16 12:16:00,
2013-06-16 08:21:00,61.7,53.3,29.92,West,261,0.0,0.0,74,0.00,,,0.00,Wunderground v.1.15,2013-06-16 12:21:00,
2013-06-16 08:26:00,62.4,53.3,29.91,WNW,295,0.0,0.0,72,0.00,,,0.00,Wunderground v.1.15,2013-06-16 12:26:00,
2013-06-16 08:32:00,63.1,53.5,29.91,NW,304,0.0,0.0,71,0.00,,,0.00,Wunderground v.1.15,2013-06-16 12:32:00,
2013-06-16 08:38:00,64.0,54.0,29.91,NW,307,0.0,0.0,70,0.00,,,0.00,Wunderground v.1.15,2013-06-16 12:38:00,
2013-06-16 08:44:00,64.7,53.9,29.91,NW,306,0.0,0.0,68,0.00,,,0.00,Wunderground v.1.15,2013-06-16 12:44:00,
2013-06-16 08:49:00,65.3,54.9,29.91,West,281,0.0,0.0,69,0.00,,,0.00,Wunderground v.1.15,2013-06-16 12:49:00,
2013-06-16 08:56:00,66.0,55.1,29.91,NW,313,0.0,0.0,68,0.00,,,0.00,Wunderground v.1.15,2013-06-16 12:56:00,
2013-06-16 09:02:00,66.6,55.3,29.91,NW,325,0.0,0.0,67,0.00,,,0.00,Wunderground v.1.15,2013-06-16 13:02:00,
2013-06-16 09:08:00,67.2,55.5,29.91,NNW,347,0.0,0.0,66,0.00,,,0.00,Wunderground v.1.15,2013-06-16 13:08:00,
2013-06-16 09:14:00,67.7,55.9,29.91,NW,313,0.0,0.0,66,0.00,,,0.00,Wunderground v.1.15,2013-06-16 13:14:00,
2013-06-16 09:19:00,68.1,55.5,29.91,West,265,0.0,0.0,64,0.00,,,0.00,Wunderground v.1.15,2013-06-16 13:19:00,
2013-06-16 09:26:00,68.4,56.2,29.91,WNW,292,0.0,0.0,65,0.00,,,0.00,Wunderground v.1.15,2013-06-16 13:26:00,
2013-06-16 09:32:00,68.9,55.3,29.91,WNW,302,0.0,0.0,62,0.00,,,0.00,Wunderground v.1.15,2013-06-16 13:32:00,
2013-06-16 09:38:00,69.4,56.3,29.90,WNW,287,0.0,0.0,63,0.00,,,0.00,Wunderground v.1.15,2013-06-16 13:38:00,
2013-06-16 09:43:00,70.0,54.5,29.91,WNW,293,0.0,0.0,58,0.00,,,0.00,Wunderground v.1.15,2013-06-16 13:43:00,
2013-06-16 09:49:00,70.4,56.8,29.90,SSW,209,0.0,0.0,62,0.00,,,0.00,Wunderground v.1.15,2013-06-16 13:49:00,
2013-06-16 09:56:00,70.7,56.1,29.90,SW,232,0.0,0.0,60,0.00,,,0.00,Wunderground v.1.15,2013-06-16 13:56:00,
2013-06-16 10:02:00,71.1,55.6,29.90,SW,221,0.0,0.0,58,0.00,,,0.00,Wunderground v.1.15,2013-06-16 14:02:00,
2013-06-16 10:07:00,71.7,56.6,29.89,WNW,301,0.0,0.0,59,0.00,,,0.00,Wunderground v.1.15,2013-06-16 14:07:00,
2013-06-16 10:13:00,72.0,55.9,29.89,SW,234,0.0,0.0,57,0.00,,,0.00,Wunderground v.1.15,2013-06-16 14:13:00,
2013-06-16 10:19:00,72.1,57.0,29.89,WSW,240,0.0,0.0,59,0.00,,,0.00,Wunderground v.1.15,2013-06-16 14:19:00,
2013-06-16 10:26:00,72.0,56.9,29.89,WSW,258,0.0,0.0,59,0.00,,,0.00,Wunderground v.1.15,2013-06-16 14:26:00,
2013-06-16 10:32:00,71.8,56.2,29.88,WSW,238,0.0,0.0,58,0.00,,,0.00,Wunderground v.1.15,2013-06-16 14:32:00,
2013-06-16 10:38:00,71.9,58.2,29.88,ENE,76,0.0,0.0,62,0.00,,,0.00,Wunderground v.1.15,2013-06-16 14:38:00,
2013-06-16 10:44:00,71.8,57.2,29.88,SSW,201,0.0,0.0,60,0.00,,,0.00,Wunderground v.1.15,2013-06-16 14:44:00,
2013-06-16 10:51:00,71.7,56.6,29.88,South,175,0.0,0.0,59,0.00,,,0.00,Wunderground v.1.15,2013-06-16 14:51:00,
2013-06-16 10:56:00,71.5,56.9,29.88,SSW,206,0.0,0.0,60,0.00,,,0.00,Wunderground v.1.15,2013-06-16 14:56:00,
2013-06-16 11:01:00,71.3,57.2,29.88,WSW,238,0.0,0.0,61,0.00,,,0.00,Wunderground v.1.15,2013-06-16 15:01:00,
2013-06-16 11:06:00,71.1,56.5,29.88,WSW,245,0.0,0.0,60,0.00,,,0.00,Wunderground v.1.15,2013-06-16 15:06:00,
2013-06-16 11:12:00,70.8,56.7,29.88,NW,314,0.0,0.0,61,0.00,,,0.00,Wunderground v.1.15,2013-06-16 15:12:00,
2013-06-16 11:17:00,70.6,57.4,29.88,South,181,0.0,0.0,63,0.00,,,0.00,Wunderground v.1.15,2013-06-16 15:17:00,
2013-06-16 11:23:00,70.3,56.7,29.87,West,273,0.0,0.0,62,0.00,,,0.00,Wunderground v.1.15,2013-06-16 15:23:00,
2013-06-16 11:29:00,70.3,58.4,29.87,West,268,0.0,0.0,66,0.00,,,0.00,Wunderground v.1.15,2013-06-16 15:29:00,
2013-06-16 11:36:00,70.3,56.7,29.87,WSW,245,0.0,0.0,62,0.00,,,0.00,Wunderground v.1.15,2013-06-16 15:36:00,
2013-06-16 11:42:00,70.4,57.6,29.87,South,188,0.0,0.0,64,0.00,,,0.00,Wunderground v.1.15,2013-06-16 15:42:00,
2013-06-16 11:48:00,70.6,57.4,29.86,SSE,166,0.0,0.0,63,0.00,,,0.00,Wunderground v.1.15,2013-06-16 15:48:00,
2013-06-16 11:54:00,70.7,57.0,29.86,West,277,0.0,0.0,62,0.00,,,0.00,Wunderground v.1.15,2013-06-16 15:54:00,
2013-06-16 11:59:00,71.0,58.2,29.86,SW,217,0.0,0.0,64,0.00,,,0.00,Wunderground v.1.15,2013-06-16 15:59:00,
2013-06-16 12:04:00,71.2,57.5,29.86,West,267,0.0,0.0,62,0.00,,,0.00,Wunderground v.1.15,2013-06-16 16:04:00,
2013-06-16 12:09:00,71.3,58.5,29.86,SSW,194,0.0,0.0,64,0.00,,,0.00,Wunderground v.1.15,2013-06-16 16:09:00,
2013-06-16 12:16:00,71.3,58.1,29.85,ESE,117,0.0,0.0,63,0.00,,,0.00,Wunderground v.1.15,2013-06-16 16:16:00,
2013-06-16 12:22:00,71.4,59.4,29.85,SW,217,0.0,0.0,66,0.00,,,0.00,Wunderground v.1.15,2013-06-16 16:22:00,
2013-06-16 12:28:00,71.6,59.2,29.84,SW,236,0.0,0.0,65,0.00,,,0.00,Wunderground v.1.15,2013-06-16 16:28:00,
2013-06-16 12:34:00,71.8,59.8,29.84,SE,142,0.0,0.0,66,0.00,,,0.00,Wunderground v.1.15,2013-06-16 16:34:00,
2013-06-16 12:41:00,71.8,59.4,29.84,SSW,209,0.0,0.0,65,0.00,,,0.00,Wunderground v.1.15,2013-06-16 16:41:00,
2013-06-16 12:47:00,71.8,59.8,29.84,West,276,0.0,0.0,66,0.00,,,0.00,Wunderground v.1.15,2013-06-16 16:47:00,
2013-06-16 12:53:00,71.8,59.0,29.84,South,184,0.0,0.0,64,0.00,,,0.00,Wunderground v.1.15,2013-06-16 16:53:00,
2013-06-16 12:58:00,71.8,59.0,29.84,SSE,165,0.0,0.0,64,0.00,,,0.00,Wunderground v.1.15,2013-06-16 16:58:00,
2013-06-16 13:04:00,71.8,59.4,29.83,West,263,0.0,0.0,65,0.00,,,0.00,Wunderground v.1.15,2013-06-16 17:04:00,
2013-06-16 13:11:00,71.8,59.4,29.83,ESE,119,0.0,0.0,65,0.00,,,0.00,Wunderground v.1.15,2013-06-16 17:11:00,
2013-06-16 13:16:00,72.1,60.1,29.83,SSE,159,0.0,0.0,66,0.00,,,0.00,Wunderground v.1.15,2013-06-16 17:16:00,
2013-06-16 13:22:00,72.5,61.3,29.82,SSW,200,0.0,0.0,68,0.00,,,0.00,Wunderground v.1.15,2013-06-16 17:22:00,
2013-06-16 13:27:00,72.9,60.9,29.82,SW,215,0.0,0.0,66,0.00,,,0.00,Wunderground v.1.15,2013-06-16 17:27:00,
2013-06-16 13:33:00,73.3,60.8,29.82,SW,215,0.0,0.0,65,0.00,,,0.00,Wunderground v.1.15,2013-06-16 17:33:00,
2013-06-16 13:39:00,73.5,60.1,29.82,West,261,0.0,0.0,63,0.00,,,0.00,Wunderground v.1.15,2013-06-16 17:39:00,
2013-06-16 13:46:00,73.9,60.5,29.82,SW,230,0.0,0.0,63,0.00,,,0.00,Wunderground v.1.15,2013-06-16 17:46:00,
2013-06-16 13:52:00,74.2,60.8,29.82,South,179,0.0,0.0,63,0.00,,,0.00,Wunderground v.1.15,2013-06-16 17:52:00,
2013-06-16 13:58:00,74.1,59.8,29.82,West,265,0.0,0.0,61,0.00,,,0.00,Wunderground v.1.15,2013-06-16 17:58:00,
2013-06-16 14:04:00,73.6,58.4,29.81,South,178,0.0,0.0,59,0.00,,,0.00,Wunderground v.1.15,2013-06-16 18:04:00,
2013-06-16 14:09:00,73.4,58.7,29.81,South,187,0.0,0.0,60,0.00,,,0.00,Wunderground v.1.15,2013-06-16 18:09:00,
2013-06-16 14:16:00,73.6,60.2,29.80,SSW,213,0.0,0.0,63,0.00,,,0.00,Wunderground v.1.15,2013-06-16 18:16:00,
2013-06-16 14:22:00,73.7,59.9,29.80,SSW,205,0.0,0.0,62,0.00,,,0.00,Wunderground v.1.15,2013-06-16 18:22:00,
2013-06-16 14:28:00,73.7,60.3,29.80,SW,231,0.0,0.0,63,0.00,,,0.00,Wunderground v.1.15,2013-06-16 18:28:00,
2013-06-16 14:34:00,73.4,59.1,29.79,SSW,205,0.0,0.0,61,0.00,,,0.00,Wunderground v.1.15,2013-06-16 18:34:00,
2013-06-16 14:41:00,73.1,59.8,29.79,SSE,161,0.0,0.0,63,0.00,,,0.00,Wunderground v.1.15,2013-06-16 18:41:00,
2013-06-16 14:46:00,73.1,60.2,29.79,WSW,242,0.0,0.0,64,0.00,,,0.00,Wunderground v.1.15,2013-06-16 18:46:00,
2013-06-16 14:52:00,73.0,58.8,29.79,SSW,192,0.0,0.0,61,0.00,,,0.00,Wunderground v.1.15,2013-06-16 18:52:00,
2013-06-16 14:57:00,72.9,58.2,29.78,SSE,157,0.0,0.0,60,0.00,,,0.00,Wunderground v.1.15,2013-06-16 18:57:00,
2013-06-16 15:03:00,73.1,57.9,29.77,SE,146,0.0,0.0,59,0.00,,,0.00,Wunderground v.1.15,2013-06-16 19:03:00,
2013-06-16 15:09:00,73.3,59.5,29.77,SSW,208,0.0,0.0,62,0.00,,,0.00,Wunderground v.1.15,2013-06-16 19:09:00,
2013-06-16 15:14:00,73.1,58.4,29.77,SW,229,0.0,0.0,60,0.00,,,0.00,Wunderground v.1.15,2013-06-16 19:14:00,
2013-06-16 15:21:00,73.0,59.7,29.76,SSW,210,0.0,0.0,63,0.00,,,0.00,Wunderground v.1.15,2013-06-16 19:21:00,
2013-06-16 15:27:00,72.6,58.4,29.76,SSW,211,0.0,0.0,61,0.00,,,0.00,Wunderground v.1.15,2013-06-16 19:27:00,
2013-06-16 15:32:00,72.2,58.9,29.76,SSW,212,0.0,0.0,63,0.00,,,0.00,Wunderground v.1.15,2013-06-16 19:32:00,
2013-06-16 15:38:00,71.8,59.4,29.76,South,182,0.0,0.0,65,0.00,,,0.00,Wunderground v.1.15,2013-06-16 19:38:00,
2013-06-16 15:43:00,71.6,58.8,29.75,SSW,196,0.0,0.0,64,0.00,,,0.00,Wunderground v.1.15,2013-06-16 19:43:00,
2013-06-16 15:49:00,71.5,58.7,29.75,SSW,196,0.0,0.0,64,0.00,,,0.00,Wunderground v.1.15,2013-06-16 19:49:00,
2013-06-16 15:54:00,71.6,59.2,29.75,SSW,211,0.0,0.0,65,0.00,,,0.00,Wunderground v.1.15,2013-06-16 19:54:00,
2013-06-16 15:59:00,71.6,58.3,29.75,South,177,0.0,0.0,63,0.00,,,0.00,Wunderground v.1.15,2013-06-16 19:59:00,
2013-06-16 16:06:00,71.7,58.4,29.75,SSW,210,0.0,0.0,63,0.00,,,0.00,Wunderground v.1.15,2013-06-16 20:06:00,
2013-06-16 16:12:00,71.7,57.5,29.75,SSW,211,0.0,0.0,61,0.00,,,0.00,Wunderground v.1.15,2013-06-16 20:12:00,
2013-06-16 16:18:00,71.7,58.0,29.75,WSW,253,0.0,0.0,62,0.00,,,0.00,Wunderground v.1.15,2013-06-16 20:18:00,
2013-06-16 16:24:00,71.5,57.3,29.75,WSW,243,0.0,0.0,61,0.00,,,0.00,Wunderground v.1.15,2013-06-16 20:24:00,
2013-06-16 16:29:00,71.4,57.2,29.75,SW,232,0.0,0.0,61,0.00,,,0.00,Wunderground v.1.15,2013-06-16 20:29:00,
2013-06-16 16:36:00,71.3,57.2,29.74,WSW,238,0.0,0.0,61,0.00,,,0.00,Wunderground v.1.15,2013-06-16 20:36:00,
2013-06-16 16:42:00,71.3,58.1,29.74,SSW,209,0.0,0.0,63,0.00,,,0.00,Wunderground v.1.15,2013-06-16 20:42:00,
2013-06-16 16:47:00,71.3,57.6,29.73,SSW,202,0.0,0.0,62,0.00,,,0.00,Wunderground v.1.15,2013-06-16 20:47:00,
2013-06-16 16:53:00,71.3,58.1,29.73,WSW,238,0.0,0.0,63,0.00,,,0.00,Wunderground v.1.15,2013-06-16 20:53:00,
2013-06-16 16:59:00,71.3,58.5,29.73,South,187,0.0,0.0,64,0.00,,,0.00,Wunderground v.1.15,2013-06-16 20:59:00,
2013-06-16 17:06:00,71.1,59.2,29.72,SSW,201,0.0,0.0,66,0.00,,,0.00,Wunderground v.1.15,2013-06-16 21:06:00,
2013-06-16 17:12:00,71.1,58.3,29.72,South,183,0.0,0.0,64,0.00,,,0.00,Wunderground v.1.15,2013-06-16 21:12:00,
2013-06-16 17:17:00,71.1,59.2,29.72,SW,215,0.0,0.0,66,0.00,,,0.00,Wunderground v.1.15,2013-06-16 21:17:00,
2013-06-16 17:23:00,71.2,59.3,29.72,SSE,156,0.0,0.0,66,0.00,,,0.00,Wunderground v.1.15,2013-06-16 21:23:00,
2013-06-16 17:29:00,71.1,59.6,29.72,WSW,246,0.0,0.0,67,0.00,,,0.00,Wunderground v.1.15,2013-06-16 21:29:00,
2013-06-16 17:36:00,71.0,59.5,29.71,SSW,203,0.0,0.0,67,0.00,,,0.00,Wunderground v.1.15,2013-06-16 21:36:00,
2013-06-16 17:41:00,70.9,59.4,29.71,South,172,0.0,0.0,67,0.00,,,0.00,Wunderground v.1.15,2013-06-16 21:41:00,
2013-06-16 17:47:00,71.0,59.9,29.72,SSW,213,0.0,0.0,68,0.00,,,0.00,Wunderground v.1.15,2013-06-16 21:47:00,
2013-06-16 17:53:00,71.2,60.1,29.71,South,181,0.0,0.0,68,0.00,,,0.00,Wunderground v.1.15,2013-06-16 21:53:00,
2013-06-16 17:59:00,71.3,60.6,29.71,SSW,205,0.0,0.0,69,0.00,,,0.00,Wunderground v.1.15,2013-06-16 21:59:00,
2013-06-16 18:06:00,71.3,61.0,29.71,South,189,0.0,0.0,70,0.00,,,0.00,Wunderground v.1.15,2013-06-16 22:06:00,
2013-06-16 18:12:00,71.3,60.6,29.71,SSW,205,0.0,0.0,69,0.00,,,0.00,Wunderground v.1.15,2013-06-16 22:12:00,
2013-06-16 18:18:00,71.2,60.9,29.71,SSE,154,0.0,0.0,70,0.00,,,0.00,Wunderground v.1.15,2013-06-16 22:18:00,
2013-06-16 18:24:00,71.2,61.3,29.71,SW,214,0.0,0.0,71,0.00,,,0.00,Wunderground v.1.15,2013-06-16 22:24:00,
2013-06-16 18:31:00,71.2,61.3,29.70,South,186,0.0,0.0,71,0.00,,,0.00,Wunderground v.1.15,2013-06-16 22:31:00,
2013-06-16 18:37:00,71.1,61.6,29.70,South,175,0.0,0.0,72,0.00,,,0.00,Wunderground v.1.15,2013-06-16 22:37:00,
2013-06-16 18:42:00,71.0,61.5,29.70,South,176,0.0,0.0,72,0.00,,,0.00,Wunderground v.1.15,2013-06-16 22:42:00,
2013-06-16 18:47:00,70.8,61.7,29.70,South,184,0.0,0.0,73,0.00,,,0.00,Wunderground v.1.15,2013-06-16 22:47:00,
2013-06-16 18:52:00,70.7,61.6,29.70,SSE,167,0.0,0.0,73,0.00,,,0.00,Wunderground v.1.15,2013-06-16 22:52:00,
2013-06-16 18:57:00,70.7,62.0,29.70,SW,236,0.0,0.0,74,0.00,,,0.00,Wunderground v.1.15,2013-06-16 22:57:00,
2013-06-16 19:02:00,70.6,61.9,29.70,South,176,0.0,0.0,74,0.00,,,0.00,Wunderground v.1.15,2013-06-16 23:02:00,
2013-06-16 19:08:00,70.7,62.4,29.70,South,176,0.0,0.0,75,0.00,,,0.00,Wunderground v.1.15,2013-06-16 23:08:00,
2013-06-16 19:14:00,70.7,62.4,29.69,SSW,204,0.0,0.0,75,0.00,,,0.00,Wunderground v.1.15,2013-06-16 23:14:00,
2013-06-16 19:21:00,70.7,62.4,29.70,South,175,0.0,0.0,75,0.00,,,0.00,Wunderground v.1.15,2013-06-16 23:21:00,
2013-06-16 19:27:00,70.7,62.8,29.70,SW,225,0.0,0.0,76,0.00,,,0.00,Wunderground v.1.15,2013-06-16 23:27:00,
2013-06-16 19:33:00,70.8,62.9,29.70,West,263,0.0,0.0,76,0.00,,,0.00,Wunderground v.1.15,2013-06-16 23:33:00,
2013-06-16 19:39:00,70.7,62.8,29.70,SW,236,0.0,0.0,76,0.00,,,0.00,Wunderground v.1.15,2013-06-16 23:39:00,
2013-06-16 19:46:00,70.7,63.1,29.69,South,171,0.0,0.0,77,0.00,,,0.00,Wunderground v.1.15,2013-06-16 23:46:00,
2013-06-16 19:52:00,70.7,63.1,29.70,SE,141,0.0,0.0,77,0.00,,,0.00,Wunderground v.1.15,2013-06-16 23:52:00,
2013-06-16 19:58:00,70.6,63.0,29.70,WSW,254,0.0,0.0,77,0.00,,,0.00,Wunderground v.1.15,2013-06-16 23:58:00,
2013-06-16 20:04:00,70.6,63.4,29.70,SSW,197,0.0,0.0,78,0.00,,,0.00,Wunderground v.1.15,2013-06-17 00:04:00,
2013-06-16 20:09:00,70.6,63.4,29.70,West,275,0.0,0.0,78,0.00,,,0.00,Wunderground v.1.15,2013-06-17 00:09:00,
2013-06-16 20:16:00,70.5,63.3,29.70,SW,217,0.0,0.0,78,0.00,,,0.00,Wunderground v.1.15,2013-06-17 00:16:00,
2013-06-16 20:22:00,70.3,63.5,29.71,SW,227,0.0,0.0,79,0.00,,,0.00,Wunderground v.1.15,2013-06-17 00:22:00,
2013-06-16 20:28:00,70.2,63.4,29.71,SW,214,0.0,0.0,79,0.00,,,0.00,Wunderground v.1.15,2013-06-17 00:28:00,
2013-06-16 20:33:00,70.0,63.5,29.71,West,269,0.0,0.0,80,0.00,,,0.00,Wunderground v.1.15,2013-06-17 00:33:00,
2013-06-16 20:39:00,69.9,63.4,29.71,West,267,0.0,0.0,80,0.00,,,0.00,Wunderground v.1.15,2013-06-17 00:39:00,
2013-06-16 20:46:00,69.8,63.3,29.70,SSW,207,0.0,0.0,80,0.00,,,0.00,Wunderground v.1.15,2013-06-17 00:46:00,
2013-06-16 20:52:00,69.7,63.6,29.70,SSW,200,0.0,0.0,81,0.00,,,0.00,Wunderground v.1.15,2013-06-17 00:52:00,
2013-06-16 20:57:00,69.6,63.5,29.71,WNW,291,0.0,0.0,81,0.00,,,0.00,Wunderground v.1.15,2013-06-17 00:57:00,
2013-06-16 21:02:00,69.6,63.5,29.71,NNW,348,0.0,0.0,81,0.00,,,0.00,Wunderground v.1.15,2013-06-17 01:02:00,
2013-06-16 21:08:00,69.6,63.9,29.71,West,276,0.0,1.0,82,0.00,,,0.00,Wunderground v.1.15,2013-06-17 01:08:00,
2013-06-16 21:13:00,69.7,64.0,29.71,West,261,0.0,0.0,82,0.00,,,0.00,Wunderground v.1.15,2013-06-17 01:13:00,
2013-06-16 21:19:00,69.7,64.0,29.72,WNW,302,0.0,0.0,82,0.00,,,0.00,Wunderground v.1.15,2013-06-17 01:19:00,
2013-06-16 21:26:00,69.8,64.1,29.72,WNW,294,0.0,0.0,82,0.00,,,0.00,Wunderground v.1.15,2013-06-17 01:26:00,
2013-06-16 21:32:00,69.8,64.1,29.72,NW,315,0.0,0.0,82,0.00,,,0.00,Wunderground v.1.15,2013-06-17 01:32:00,
2013-06-16 21:38:00,69.6,63.9,29.72,WSW,240,0.0,0.0,82,0.00,,,0.00,Wunderground v.1.15,2013-06-17 01:38:00,
2013-06-16 21:44:00,69.4,64.0,29.72,West,272,0.0,0.0,83,0.00,,,0.00,Wunderground v.1.15,2013-06-17 01:44:00,
2013-06-16 21:51:00,69.1,63.7,29.73,WSW,237,0.0,0.0,83,0.00,,,0.00,Wunderground v.1.15,2013-06-17 01:51:00,
2013-06-16 21:56:00,68.8,63.4,29.73,NNW,334,0.0,0.0,83,0.00,,,0.00,Wunderground v.1.15,2013-06-17 01:56:00,
2013-06-16 22:01:00,68.7,63.7,29.73,WNW,293,0.0,0.0,84,0.00,,,0.00,Wunderground v.1.15,2013-06-17 02:01:00,
2013-06-16 22:06:00,68.7,63.7,29.73,North,355,0.0,0.0,84,0.00,,,0.00,Wunderground v.1.15,2013-06-17 02:06:00,
2013-06-16 22:12:00,68.6,63.6,29.73,WSW,253,0.0,0.0,84,0.00,,,0.00,Wunderground v.1.15,2013-06-17 02:12:00,
2013-06-16 22:18:00,68.5,63.5,29.74,NNW,328,0.0,0.0,84,0.00,,,0.00,Wunderground v.1.15,2013-06-17 02:18:00,
2013-06-16 22:24:00,68.3,63.3,29.74,WNW,292,0.0,0.0,84,0.00,,,0.00,Wunderground v.1.15,2013-06-17 02:24:00,
2013-06-16 22:31:00,68.2,63.5,29.74,WNW,291,0.0,0.0,85,0.00,,,0.00,Wunderground v.1.15,2013-06-17 02:31:00,
2013-06-16 22:37:00,68.1,63.4,29.74,NNW,331,0.0,0.0,85,0.00,,,0.00,Wunderground v.1.15,2013-06-17 02:37:00,
2013-06-16 22:43:00,67.9,63.2,29.74,SW,236,0.0,0.0,85,0.00,,,0.00,Wunderground v.1.15,2013-06-17 02:43:00,
2013-06-16 22:48:00,67.8,63.1,29.74,WSW,241,0.0,0.0,85,0.00,,,0.00,Wunderground v.1.15,2013-06-17 02:48:00,
2013-06-16 22:54:00,67.7,63.4,29.74,WSW,242,0.0,0.0,86,0.00,,,0.00,Wunderground v.1.15,2013-06-17 02:54:00,
2013-06-16 23:01:00,67.7,63.0,29.74,WSW,254,0.0,0.0,85,0.00,,,0.00,Wunderground v.1.15,2013-06-17 03:01:00,
2013-06-16 23:06:00,67.7,63.0,29.75,WNW,288,0.0,0.0,85,0.00,,,0.00,Wunderground v.1.15,2013-06-17 03:06:00,
2013-06-16 23:12:00,67.5,62.8,29.75,WSW,250,0.0,0.0,85,0.00,,,0.00,Wunderground v.1.15,2013-06-17 03:12:00,
2013-06-16 23:18:00,67.3,62.6,29.75,WSW,252,0.0,0.0,85,0.00,,,0.00,Wunderground v.1.15,2013-06-17 03:18:00,
2013-06-16 23:23:00,67.2,62.5,29.75,WNW,290,0.0,0.0,85,0.00,,,0.00,Wunderground v.1.15,2013-06-17 03:23:00,
2013-06-16 23:29:00,67.1,62.4,29.76,WNW,286,0.0,0.0,85,0.00,,,0.00,Wunderground v.1.15,2013-06-17 03:29:00,
2013-06-16 23:36:00,67.3,62.3,29.76,NW,322,0.0,0.0,84,0.00,,,0.00,Wunderground v.1.15,2013-06-17 03:36:00,
2013-06-16 23:42:00,67.5,62.5,29.76,NW,307,0.0,0.0,84,0.00,,,0.00,Wunderground v.1.15,2013-06-17 03:42:00,
2013-06-16 23:48:00,67.7,62.3,29.76,West,280,0.0,0.0,83,0.00,,,0.00,Wunderground v.1.15,2013-06-17 03:48:00,
2013-06-16 23:54:00,67.6,61.9,29.76,WNW,298,0.0,0.0,82,0.00,,,0.00,Wunderground v.1.15,2013-06-17 03:54:00,
2013-06-16 23:59:00,67.5,61.8,29.76,NNW,335,0.0,0.0,82,0.00,,,0.00,Wunderground v.1.15,2013-06-17 03:59:00,